Terug naar catalogus

CZ-6A DEB

ActiefSSO
NORAD 56610·DEBRIS·🇨🇳 China

Gelanceerd Nov 11, 2022 vanaf Taiyuan Satellite Launch Center

Loading…

Volgende Passages (komende 24 uur)

TLE

VersSource: Space-Track

Epoch: Sep 13, 2026, 10:34 UTC

1 56610U 22151AEJ 26256.44095750  .00000078  00000-0  69555-4 0  9993
2 56610  98.8494 249.7619 0053508  88.6516 272.0783 14.08666471194146

Volg CZ-6A DEB in realtime met AllMySat

Download on the App Store